Погода в Вила-ду-Порту

Португалия     36°57′20″N   25°08′31″W
темп.,
°C
ветер,
м/с
пор.,
м/с
влажн.,
%
обл.,
%
осадки,
мм/ч
давл.,
гПа
погр.,
м
17 июня, чт
чт1700:00+20сз4786100 0.7 1024510
03:00+20зсз4587100 0.2 1022327
06:00+20зюз3689100 1.0 1021372
09:00+18всв131290100 2.9 1023606
12:00+18в111183100 3.3 1025874
15:00+19в8879100 0.1 1025905
18:00+19в9873100 0.1 1025923
21:00+19всв7767100 0.0 10261115
18 июня, пт
пт1800:00+19всв6765100 0.0 10271095
03:00+19всв666574 0.0 10261188
06:00+19св666399 0.1 10271201
09:00+19св6660100 0.0 10281261
12:00+18св56635 0.0 1029976
15:00+19св55708 0.0 1028943
18:00+19св44685 0.0 1029830
21:00+19ссв33675 0.0 1029828
19 июня, сб
сб1900:00+19с33665 0.0 1030740
03:00+19сз336854 0.0 1028580
06:00+19сз45705 0.0 1028651
09:00+19сз77720 0.0 1028649
12:00+20сз78710 0.0 1028605
15:00+20сз910770 0.0 1027531
18:00+20сз910810 0.0 1027439
21:00+20сз810870 0.0 1027424
20 июня, вс
вс2000:00+20сз711900 0.0 1027573
03:00+20сз811894 0.0 1026624
06:00+20сз811883 0.0 1026605
09:00+20ссз8119081 0.1 1026650
12:00+20с678118 0.2 1027717
15:00+20ссв45710 0.0 1026772
18:00+20ссв44692 0.0 1026659
21:00+20ссв55715 0.0 1027602
21 июня, пн
пн2100:00+20ссв67715 0.0 1027894
03:00+19ссв6775100 0.0 1027892
06:00+19ссв6777100 0.2 1026906
09:00+19ссв786940 0.0 1028994
12:00+20ссв787397 0.0 10281033
15:00+20ссв687755 0.0 1028839
18:00+20ссв687960 0.0 1028731
21:00+20ссв5783100 0.1 1028554